KAL1562 RKPC-RKPK

Flight info

Callsign KAL1562
Flight time 0h 46m
Altitude 15000
Route AKPON1E AKPON Y571 ANROD KEVOX3
Aircraft A21N/M-SDE2E3FGHIJ1RWXY/LB1

Departure

Time 2026-05-06 12:39
Airport Jeju International Airport (RKPC)

Arrival

Time 2026-05-06 13:26
Airport Gimhae International Airport (RKPK)
Time Latitude Longitude Altitude Speed Heading
2026-05-06 12:21 33.50780 126.48952 94 ft 0 kts 328°
2026-05-06 12:34 33.50782 126.48951 94 ft 2 kts 328°
2026-05-06 12:34 33.50805 126.48934 94 ft 6 kts 328°
2026-05-06 12:34 33.50851 126.48920 94 ft 8 kts 29°
2026-05-06 12:35 33.50893 126.48974 94 ft 10 kts 62°
2026-05-06 12:35 33.50927 126.49048 94 ft 11 kts 58°
2026-05-06 12:35 33.50969 126.49128 93 ft 12 kts 58°
2026-05-06 12:35 33.51015 126.49218 95 ft 13 kts 58°
2026-05-06 12:36 33.51065 126.49316 94 ft 14 kts 58°
2026-05-06 12:36 33.51120 126.49422 93 ft 15 kts 58°
2026-05-06 12:36 33.51177 126.49534 96 ft 17 kts 58°
2026-05-06 12:36 33.51239 126.49654 97 ft 14 kts 59°
2026-05-06 12:37 33.51261 126.49699 93 ft 6 kts 59°
2026-05-06 12:37 33.51285 126.49746 92 ft 7 kts 59°
2026-05-06 12:37 33.51313 126.49800 93 ft 8 kts 50°
2026-05-06 12:37 33.51366 126.49827 93 ft 9 kts 353°
2026-05-06 12:38 33.51425 126.49792 90 ft 10 kts 330°
2026-05-06 12:38 33.51474 126.49757 92 ft 7 kts 318°
2026-05-06 12:38 33.51461 126.49703 94 ft 9 kts 233°
2026-05-06 12:38 33.51354 126.49496 92 ft 63 kts 239°
2026-05-06 12:39 33.50986 126.48779 96 ft 134 kts 238°
2026-05-06 12:39 33.50414 126.47656 196 ft 173 kts 239°
2026-05-06 12:39 33.49817 126.46451 896 ft 166 kts 236°
2026-05-06 12:39 33.49191 126.45292 1543 ft 166 kts 236°
2026-05-06 12:40 33.48578 126.44116 2118 ft 167 kts 236°
2026-05-06 12:40 33.48106 126.42835 2609 ft 173 kts 262°
2026-05-06 12:40 33.48374 126.41435 3075 ft 179 kts 303°
2026-05-06 12:40 33.49289 126.40373 3479 ft 190 kts 321°
2026-05-06 12:41 33.50444 126.39508 3877 ft 202 kts 342°
2026-05-06 12:41 33.51872 126.39474 4256 ft 215 kts 18°
2026-05-06 12:41 33.53185 126.40382 4580 ft 232 kts 42°
2026-05-06 12:41 33.54168 126.42000 4877 ft 252 kts 69°
2026-05-06 12:42 33.54743 126.44056 5311 ft 267 kts 74°
2026-05-06 12:42 33.55285 126.46236 5879 ft 277 kts 74°
2026-05-06 12:42 33.55851 126.48469 6576 ft 282 kts 73°
2026-05-06 12:42 33.56440 126.50742 7244 ft 287 kts 73°
2026-05-06 12:43 33.57042 126.53036 7910 ft 290 kts 73°
2026-05-06 12:43 33.57654 126.55341 8565 ft 295 kts 72°
2026-05-06 12:43 33.58282 126.57702 9275 ft 298 kts 72°
2026-05-06 12:43 33.58915 126.60092 9963 ft 302 kts 72°
2026-05-06 12:44 33.59564 126.62544 10358 ft 315 kts 72°
2026-05-06 12:44 33.60239 126.65089 10610 ft 332 kts 72°
2026-05-06 12:44 33.60957 126.67801 10840 ft 349 kts 72°
2026-05-06 12:44 33.61711 126.70650 11056 ft 366 kts 72°
2026-05-06 12:45 33.62496 126.73623 11277 ft 381 kts 72°
2026-05-06 12:45 33.63315 126.76732 11484 ft 396 kts 72°
2026-05-06 12:45 33.65020 126.83224 11935 ft 419 kts 72°
2026-05-06 12:46 33.65906 126.86575 12335 ft 422 kts 72°
2026-05-06 12:46 33.66796 126.89956 12754 ft 425 kts 72°
2026-05-06 12:46 33.67683 126.93353 13185 ft 428 kts 72°
2026-05-06 12:46 33.68568 126.96788 13614 ft 432 kts 72°
2026-05-06 12:47 33.69460 127.00252 14010 ft 435 kts 72°
2026-05-06 12:47 33.70364 127.03731 14384 ft 437 kts 72°
2026-05-06 12:47 33.71261 127.07185 14780 ft 440 kts 72°
2026-05-06 12:47 33.72176 127.10701 15013 ft 442 kts 72°
2026-05-06 12:48 33.73101 127.14235 15063 ft 442 kts 71°
2026-05-06 12:48 33.74116 127.17719 15047 ft 441 kts 64°
2026-05-06 12:48 33.75757 127.20808 15045 ft 439 kts 50°
2026-05-06 12:48 33.77746 127.23617 15055 ft 439 kts 47°
2026-05-06 12:49 33.79716 127.26366 15047 ft 439 kts 48°
2026-05-06 12:49 33.81691 127.29178 15041 ft 439 kts 49°
2026-05-06 12:49 33.83654 127.32006 15039 ft 439 kts 49°
2026-05-06 12:49 33.85605 127.34836 15039 ft 439 kts 49°
2026-05-06 12:50 33.87543 127.37673 15039 ft 439 kts 49°
2026-05-06 12:50 33.89486 127.40521 15042 ft 439 kts 49°
2026-05-06 12:50 33.91421 127.43362 15046 ft 439 kts 49°
2026-05-06 12:50 33.93375 127.46204 15044 ft 440 kts 49°
2026-05-06 12:51 33.95303 127.49011 15039 ft 439 kts 49°
2026-05-06 12:51 33.97244 127.51859 15039 ft 439 kts 49°
2026-05-06 12:51 33.99185 127.54712 15041 ft 439 kts 49°
2026-05-06 12:51 34.01129 127.57561 15038 ft 439 kts 49°
2026-05-06 12:52 34.03075 127.60408 15039 ft 439 kts 49°
2026-05-06 12:52 34.05014 127.63255 15039 ft 439 kts 49°
2026-05-06 12:52 34.06932 127.66069 15040 ft 440 kts 49°
2026-05-06 12:52 34.08879 127.68925 15039 ft 440 kts 49°
2026-05-06 12:53 34.10826 127.71791 15039 ft 440 kts 49°
2026-05-06 12:53 34.12762 127.74659 15040 ft 439 kts 49°
2026-05-06 12:53 34.14696 127.77514 15039 ft 439 kts 49°
2026-05-06 12:53 34.16633 127.80365 15039 ft 439 kts 49°
2026-05-06 12:54 34.18549 127.83186 15042 ft 439 kts 49°
2026-05-06 12:54 34.20483 127.86048 15045 ft 440 kts 49°
2026-05-06 12:54 34.22425 127.88916 15043 ft 440 kts 49°
2026-05-06 12:54 34.24368 127.91781 15042 ft 440 kts 49°
2026-05-06 12:55 34.26308 127.94645 15042 ft 440 kts 49°
2026-05-06 12:55 34.28247 127.97515 15040 ft 439 kts 49°
2026-05-06 12:55 34.30178 128.00380 15041 ft 439 kts 49°
2026-05-06 12:55 34.32089 128.03228 15045 ft 439 kts 49°
2026-05-06 12:56 34.34018 128.06101 15044 ft 440 kts 49°
2026-05-06 12:56 34.35950 128.08981 15043 ft 440 kts 49°
2026-05-06 12:56 34.37872 128.11859 15035 ft 439 kts 49°
2026-05-06 12:56 34.39776 128.14705 14803 ft 436 kts 49°
2026-05-06 12:57 34.41667 128.17529 14577 ft 437 kts 49°
2026-05-06 12:57 34.43578 128.20381 14349 ft 434 kts 49°
2026-05-06 12:57 34.45485 128.23219 14120 ft 433 kts 49°
2026-05-06 12:57 34.47388 128.26038 13890 ft 431 kts 49°
2026-05-06 12:58 34.49269 128.28859 13634 ft 430 kts 50°
2026-05-06 12:58 34.51144 128.31679 13376 ft 428 kts 50°
2026-05-06 12:58 34.53018 128.34486 13120 ft 427 kts 50°
2026-05-06 12:58 34.54864 128.37250 12704 ft 422 kts 50°
2026-05-06 12:59 34.56700 128.40003 12259 ft 415 kts 50°
2026-05-06 12:59 34.58494 128.42695 11916 ft 402 kts 50°
2026-05-06 12:59 34.60222 128.45288 11657 ft 387 kts 50°
2026-05-06 12:59 34.61983 128.47683 11430 ft 371 kts 40°
2026-05-06 13:00 34.64077 128.49348 11224 ft 352 kts 21°
2026-05-06 13:00 34.66353 128.50091 11049 ft 334 kts
2026-05-06 13:00 34.68583 128.50579 10960 ft 320 kts 19°
2026-05-06 13:00 34.70492 128.51872 10777 ft 310 kts 32°
2026-05-06 13:01 34.72257 128.53338 10485 ft 303 kts 32°
2026-05-06 13:01 34.73987 128.54764 10159 ft 298 kts 32°
2026-05-06 13:01 34.75688 128.56128 9749 ft 296 kts 31°
2026-05-06 13:01 34.77417 128.57490 9316 ft 296 kts 31°
2026-05-06 13:02 34.79166 128.58846 8909 ft 298 kts 31°
2026-05-06 13:02 34.80928 128.60208 8453 ft 299 kts 31°
2026-05-06 13:02 34.82684 128.61565 7996 ft 298 kts 31°
2026-05-06 13:02 34.84406 128.62903 7600 ft 297 kts 31°
2026-05-06 13:03 34.86141 128.64251 7245 ft 293 kts 31°
2026-05-06 13:03 34.87851 128.65575 6871 ft 290 kts 31°
2026-05-06 13:03 34.89552 128.66889 6468 ft 288 kts 31°
2026-05-06 13:03 34.91243 128.68194 6054 ft 287 kts 31°
2026-05-06 13:04 34.92908 128.69482 5764 ft 278 kts 31°
2026-05-06 13:04 34.94501 128.70716 5537 ft 266 kts 31°
2026-05-06 13:04 34.96027 128.71898 5382 ft 253 kts 32°
2026-05-06 13:04 34.97453 128.73003 5134 ft 240 kts 32°
2026-05-06 13:05 34.98822 128.74064 4877 ft 227 kts 31°
2026-05-06 13:05 35.00087 128.75064 4614 ft 203 kts 33°
2026-05-06 13:05 35.01188 128.76053 4301 ft 191 kts 37°
2026-05-06 13:05 35.02201 128.76989 4128 ft 173 kts 37°
2026-05-06 13:06 35.03095 128.77817 3779 ft 155 kts 37°
2026-05-06 13:06 35.03950 128.78603 3371 ft 153 kts 37°
2026-05-06 13:06 35.04803 128.79384 2929 ft 154 kts 37°
2026-05-06 13:06 35.05655 128.80166 2663 ft 155 kts 36°
2026-05-06 13:07 35.06516 128.80961 2609 ft 155 kts 36°
2026-05-06 13:07 35.07380 128.81755 2624 ft 156 kts 36°
2026-05-06 13:07 35.08249 128.82550 2629 ft 156 kts 36°
2026-05-06 13:07 35.09116 128.83349 2630 ft 156 kts 36°
2026-05-06 13:08 35.09986 128.84148 2630 ft 156 kts 36°
2026-05-06 13:08 35.10846 128.84940 2601 ft 157 kts 36°
2026-05-06 13:08 35.11703 128.85747 2161 ft 154 kts 38°
2026-05-06 13:08 35.12542 128.86554 1748 ft 153 kts 38°
2026-05-06 13:09 35.13380 128.87347 1694 ft 152 kts 37°
2026-05-06 13:09 35.14297 128.87952 1655 ft 150 kts
2026-05-06 13:09 35.15326 128.88121 1618 ft 150 kts
2026-05-06 13:09 35.16348 128.88379 1521 ft 149 kts
2026-05-06 13:10 35.17363 128.88634 1456 ft 149 kts
2026-05-06 13:10 35.18381 128.88890 1390 ft 149 kts
2026-05-06 13:10 35.19393 128.89149 1325 ft 148 kts 13°
2026-05-06 13:10 35.20351 128.89726 1246 ft 154 kts 23°
2026-05-06 13:11 35.21201 128.90467 1192 ft 147 kts 41°
2026-05-06 13:11 35.21772 128.91473 1137 ft 145 kts 81°
2026-05-06 13:11 35.21454 128.92547 1068 ft 139 kts 138°
2026-05-06 13:11 35.20648 128.93128 701 ft 133 kts 156°
2026-05-06 13:12 35.19744 128.93428 328 ft 135 kts 172°
2026-05-06 13:12 35.18747 128.93585 520 ft 160 kts 173°
2026-05-06 13:12 35.17579 128.93779 1463 ft 179 kts 174°
2026-05-06 13:12 35.16325 128.94017 2530 ft 177 kts 174°
2026-05-06 13:13 35.15116 128.94252 3262 ft 177 kts 173°
2026-05-06 13:13 35.13846 128.94497 3669 ft 193 kts 172°
2026-05-06 13:13 35.12494 128.95066 3887 ft 219 kts 160°
2026-05-06 13:13 35.10923 128.95276 4061 ft 235 kts 191°
2026-05-06 13:14 35.09432 128.94517 4076 ft 234 kts 219°
2026-05-06 13:14 35.08302 128.93089 4059 ft 234 kts 230°
2026-05-06 13:14 35.07232 128.91639 4041 ft 234 kts 219°
2026-05-06 13:14 35.05899 128.90482 4038 ft 234 kts 213°
2026-05-06 13:15 35.04983 128.89779 4036 ft 234 kts 212°
2026-05-06 13:15 35.03592 128.88740 4037 ft 233 kts 212°
2026-05-06 13:15 35.01763 128.87371 4032 ft 233 kts 212°
2026-05-06 13:15 35.00375 128.86326 4033 ft 235 kts 212°
2026-05-06 13:16 34.99027 128.85310 4008 ft 217 kts 212°
2026-05-06 13:16 34.98186 128.84675 4008 ft 213 kts 212°
2026-05-06 13:16 34.96929 128.83720 4024 ft 213 kts 215°
2026-05-06 13:16 34.95901 128.82393 4034 ft 228 kts 242°
2026-05-06 13:17 34.95545 128.80591 4034 ft 221 kts 273°
2026-05-06 13:17 34.95983 128.78824 4032 ft 220 kts 302°
2026-05-06 13:17 34.97067 128.77474 4037 ft 220 kts 323°
2026-05-06 13:17 34.98305 128.76446 4031 ft 204 kts 328°
2026-05-06 13:18 34.99456 128.75672 4041 ft 176 kts 335°
2026-05-06 13:18 35.00619 128.75596 3987 ft 166 kts 16°
2026-05-06 13:18 35.01573 128.76340 3469 ft 167 kts 39°
2026-05-06 13:18 35.02436 128.77190 3157 ft 154 kts 38°
2026-05-06 13:19 35.03282 128.77983 2771 ft 154 kts 37°
2026-05-06 13:19 35.04139 128.78770 2622 ft 155 kts 36°
2026-05-06 13:19 35.05000 128.79568 2617 ft 155 kts 36°
2026-05-06 13:19 35.05854 128.80349 2621 ft 155 kts 36°
2026-05-06 13:20 35.06709 128.81143 2626 ft 155 kts 36°
2026-05-06 13:20 35.07572 128.81933 2629 ft 155 kts 36°
2026-05-06 13:20 35.08440 128.82724 2630 ft 155 kts 36°
2026-05-06 13:20 35.09300 128.83522 2630 ft 156 kts 36°
2026-05-06 13:21 35.10166 128.84320 2629 ft 156 kts 36°
2026-05-06 13:21 35.11031 128.85117 2536 ft 155 kts 36°
2026-05-06 13:21 35.11878 128.85920 2106 ft 153 kts 37°
2026-05-06 13:21 35.12714 128.86721 1710 ft 152 kts 38°
2026-05-06 13:22 35.13545 128.87516 1701 ft 151 kts 37°
2026-05-06 13:22 35.14375 128.88305 1717 ft 151 kts 37°
2026-05-06 13:22 35.15299 128.88870 1702 ft 150 kts 11°
2026-05-06 13:22 35.16312 128.89080 1656 ft 149 kts
2026-05-06 13:23 35.17345 128.89118 1592 ft 148 kts 359°
2026-05-06 13:23 35.18374 128.89154 1467 ft 148 kts 359°
2026-05-06 13:23 35.19402 128.89189 1273 ft 149 kts 351°
2026-05-06 13:23 35.20432 128.89406 1103 ft 151 kts 14°
2026-05-06 13:24 35.21343 128.89979 1055 ft 148 kts 47°
2026-05-06 13:24 35.21844 128.91037 1049 ft 143 kts 78°
2026-05-06 13:24 35.21674 128.92172 1028 ft 138 kts 128°
2026-05-06 13:24 35.20981 128.92959 735 ft 134 kts 143°
2026-05-06 13:25 35.20118 128.93390 366 ft 136 kts 168°
2026-05-06 13:25 35.19194 128.93537 132 ft 133 kts 175°
2026-05-06 13:25 35.18275 128.93649 29 ft 128 kts 173°
2026-05-06 13:25 35.17518 128.93753 32 ft 85 kts 172°
2026-05-06 13:26 35.17231 128.93786 30 ft 21 kts 168°
2026-05-06 13:26 35.17104 128.93875 29 ft 22 kts 146°
2026-05-06 13:26 35.17008 128.93959 27 ft 12 kts 143°
2026-05-06 13:26 35.16974 128.94054 27 ft 14 kts 99°
2026-05-06 13:27 35.16968 128.94153 28 ft 11 kts 83°
2026-05-06 13:27 35.16977 128.94249 28 ft 12 kts 83°
2026-05-06 13:27 35.16987 128.94358 29 ft 14 kts 83°
2026-05-06 13:27 35.16993 128.94431 29 ft 8 kts 84°
2026-05-06 13:28 35.16999 128.94503 29 ft 9 kts 87°
2026-05-06 13:28 35.16977 128.94583 29 ft 11 kts 116°
2026-05-06 13:28 35.16946 128.94659 29 ft 5 kts 117°
2026-05-06 13:28 35.16945 128.94705 29 ft 7 kts 52°
2026-05-06 13:29 35.16982 128.94734 29 ft 6 kts 26°
2026-05-06 13:29 35.16997 128.94742 29 ft 2 kts 23°
2026-05-06 13:29 35.17004 128.94746 29 ft 0 kts 24°